WFL2005 LKPR-LPPT

Flight info

Callsign WFL2005
Flight time 3h 16m
Altitude 40000
Route BALTU DCT DONAD DCT OKG L984 KULOK Z715 ANELA N869 TEDGO/N0490F410 N869 NATOR DCT LUTIX DCT BENOT DCT NEMOS DCT NINTU DCT MEBAK DCT REPSI DCT LERGA DCT MINSO DCT NARAK DCT AGN DCT PIPOR L866 PPN DCT MIRPO DCT DGO DCT NEA DCT ARDID DCT INBOM
Aircraft A359/H-SDE2E3GHIJ3J4J5LM1ORWXY/LB1D1

Departure

Time 2026-05-08 06:03
Airport Václav Havel Airport Prague (LKPR)

Arrival

Time 2026-05-08 09:20
Airport Lisbon Humberto Delgado Airport (LPPT)
Time Latitude Longitude Altitude Speed Heading
2026-05-08 05:38 50.10846 14.26436 1259 ft 0 kts 34°
2026-05-08 05:41 50.10845 14.26435 1261 ft 0 kts 34°
2026-05-08 05:42 50.10808 14.26508 1261 ft 1 kts 36°
2026-05-08 05:43 50.10809 14.26509 1260 ft 0 kts 36°
2026-05-08 05:56 50.10802 14.26502 1260 ft 0 kts 36°
2026-05-08 05:56 50.10792 14.26491 1260 ft 2 kts 25°
2026-05-08 05:56 50.10778 14.26484 1260 ft 2 kts
2026-05-08 05:56 50.10762 14.26483 1260 ft 2 kts 352°
2026-05-08 05:57 50.10748 14.26489 1260 ft 2 kts 336°
2026-05-08 05:57 50.10735 14.26500 1260 ft 2 kts 321°
2026-05-08 05:57 50.10725 14.26514 1260 ft 0 kts 309°
2026-05-08 05:57 50.10725 14.26515 1260 ft 0 kts 309°
2026-05-08 05:59 50.10725 14.26514 1260 ft 0 kts 309°
2026-05-08 05:59 50.10751 14.26460 1260 ft 13 kts 306°
2026-05-08 05:59 50.10809 14.26296 1260 ft 18 kts 266°
2026-05-08 05:59 50.10722 14.26158 1260 ft 19 kts 211°
2026-05-08 06:00 50.10604 14.26042 1260 ft 20 kts 212°
2026-05-08 06:00 50.10478 14.26032 1260 ft 20 kts 136°
2026-05-08 06:00 50.10378 14.26231 1260 ft 27 kts 126°
2026-05-08 06:00 50.10250 14.26497 1260 ft 34 kts 127°
2026-05-08 06:01 50.10097 14.26813 1260 ft 37 kts 127°
2026-05-08 06:01 50.09937 14.27142 1260 ft 38 kts 127°
2026-05-08 06:01 50.09760 14.27457 1260 ft 39 kts 136°
2026-05-08 06:01 50.09569 14.27750 1260 ft 34 kts 135°
2026-05-08 06:02 50.09402 14.28008 1260 ft 31 kts 135°
2026-05-08 06:02 50.09262 14.28215 1260 ft 22 kts 139°
2026-05-08 06:02 50.09124 14.28226 1260 ft 21 kts 223°
2026-05-08 06:02 50.09122 14.28011 1260 ft 26 kts 303°
2026-05-08 06:03 50.09378 14.27481 1260 ft 104 kts 307°
2026-05-08 06:03 50.09965 14.26259 1294 ft 172 kts 308°
2026-05-08 06:03 50.10748 14.24634 1828 ft 195 kts 308°
2026-05-08 06:03 50.11532 14.23022 2775 ft 187 kts 308°
2026-05-08 06:04 50.12312 14.21421 3530 ft 194 kts 308°
2026-05-08 06:04 50.13160 14.19674 4141 ft 210 kts 307°
2026-05-08 06:04 50.14064 14.17805 4760 ft 226 kts 307°
2026-05-08 06:04 50.15041 14.15779 5388 ft 243 kts 307°
2026-05-08 06:05 50.16069 14.13645 6054 ft 257 kts 306°
2026-05-08 06:05 50.17159 14.11379 6945 ft 262 kts 306°
2026-05-08 06:05 50.18247 14.09116 7870 ft 266 kts 306°
2026-05-08 06:05 50.19350 14.06819 8768 ft 269 kts 305°
2026-05-08 06:06 50.20466 14.04492 9635 ft 273 kts 304°
2026-05-08 06:06 50.21612 14.02097 10464 ft 279 kts 303°
2026-05-08 06:06 50.22472 13.99422 11138 ft 284 kts 281°
2026-05-08 06:06 50.22509 13.96384 11912 ft 286 kts 256°
2026-05-08 06:07 50.21942 13.93401 12774 ft 288 kts 251°
2026-05-08 06:07 50.21304 13.90428 13630 ft 290 kts 251°
2026-05-08 06:07 50.20673 13.87506 14472 ft 291 kts 251°
2026-05-08 06:07 50.20029 13.84504 15317 ft 291 kts 251°
2026-05-08 06:08 50.19380 13.81464 15967 ft 299 kts 251°
2026-05-08 06:08 50.18718 13.78346 16327 ft 314 kts 252°
2026-05-08 06:08 50.18010 13.75006 16659 ft 331 kts 252°
2026-05-08 06:08 50.17279 13.71559 16971 ft 346 kts 252°
2026-05-08 06:09 50.16513 13.67951 17449 ft 355 kts 252°
2026-05-08 06:09 50.15728 13.64263 18141 ft 358 kts 252°
2026-05-08 06:09 50.14942 13.60574 18862 ft 360 kts 253°
2026-05-08 06:09 50.14160 13.56912 19551 ft 361 kts 253°
2026-05-08 06:10 50.13359 13.53167 20229 ft 363 kts 253°
2026-05-08 06:10 50.12565 13.49456 20881 ft 366 kts 253°
2026-05-08 06:10 50.11759 13.45701 21518 ft 368 kts 254°
2026-05-08 06:10 50.10945 13.41910 22140 ft 370 kts 254°
2026-05-08 06:11 50.10140 13.38117 22737 ft 372 kts 256°
2026-05-08 06:11 50.09493 13.34258 23317 ft 373 kts 260°
2026-05-08 06:11 50.09052 13.30272 23896 ft 374 kts 265°
2026-05-08 06:11 50.08826 13.26226 24456 ft 375 kts 269°
2026-05-08 06:12 50.08707 13.22232 24999 ft 376 kts 270°
2026-05-08 06:12 50.08596 13.18107 25535 ft 378 kts 270°
2026-05-08 06:12 50.08489 13.14018 26044 ft 380 kts 270°
2026-05-08 06:12 50.08380 13.09946 26511 ft 383 kts 270°
2026-05-08 06:13 50.08268 13.05743 26702 ft 392 kts 270°
2026-05-08 06:13 50.08154 13.01462 26909 ft 399 kts 270°
2026-05-08 06:13 50.08044 12.97148 27222 ft 404 kts 270°
2026-05-08 06:13 50.07941 12.92733 27616 ft 406 kts 270°
2026-05-08 06:14 50.07836 12.88355 28006 ft 407 kts 270°
2026-05-08 06:14 50.07728 12.83953 28375 ft 409 kts 270°
2026-05-08 06:14 50.07617 12.79528 28729 ft 411 kts 271°
2026-05-08 06:14 50.07502 12.75061 29075 ft 413 kts 271°
2026-05-08 06:15 50.07386 12.70650 29400 ft 415 kts 271°
2026-05-08 06:15 50.07265 12.66153 29719 ft 416 kts 271°
2026-05-08 06:15 50.07142 12.61643 30023 ft 418 kts 271°
2026-05-08 06:15 50.07016 12.57127 30343 ft 419 kts 271°
2026-05-08 06:16 50.06888 12.52618 30758 ft 418 kts 272°
2026-05-08 06:16 50.06757 12.48088 31205 ft 416 kts 272°
2026-05-08 06:16 50.06630 12.43604 31626 ft 414 kts 272°
2026-05-08 06:16 50.06587 12.39163 32021 ft 411 kts 275°
2026-05-08 06:17 50.06694 12.30341 32831 ft 408 kts 276°
2026-05-08 06:17 50.06747 12.25943 33249 ft 406 kts 276°
2026-05-08 06:17 50.06799 12.21556 33646 ft 405 kts 276°
2026-05-08 06:18 50.06850 12.17216 34024 ft 404 kts 276°
2026-05-08 06:18 50.06903 12.12831 34389 ft 403 kts 276°
2026-05-08 06:18 50.06955 12.08522 34736 ft 402 kts 276°
2026-05-08 06:18 50.07002 12.04181 35072 ft 401 kts 276°
2026-05-08 06:19 50.07044 11.99875 35397 ft 400 kts 276°
2026-05-08 06:19 50.07081 11.95514 35715 ft 400 kts 276°
2026-05-08 06:19 50.07115 11.91224 36015 ft 399 kts 276°
2026-05-08 06:19 50.07147 11.86919 36306 ft 399 kts 276°
2026-05-08 06:20 50.07179 11.82602 36577 ft 398 kts 276°
2026-05-08 06:20 50.07158 11.78323 36825 ft 401 kts 273°
2026-05-08 06:20 50.06865 11.73980 37062 ft 406 kts 268°
2026-05-08 06:20 50.06280 11.69659 37288 ft 412 kts 263°
2026-05-08 06:21 50.05398 11.65385 37504 ft 418 kts 258°
2026-05-08 06:21 50.04218 11.61229 37717 ft 425 kts 252°
2026-05-08 06:21 50.02729 11.57226 38034 ft 431 kts 247°
2026-05-08 06:21 50.00977 11.53507 38397 ft 435 kts 241°
2026-05-08 06:22 49.98942 11.49995 38640 ft 441 kts 237°
2026-05-08 06:22 49.96809 11.46555 38801 ft 442 kts 237°
2026-05-08 06:22 49.94612 11.43216 38923 ft 448 kts 234°
2026-05-08 06:22 49.92247 11.39990 39053 ft 454 kts 231°
2026-05-08 06:23 49.89777 11.36961 39189 ft 460 kts 228°
2026-05-08 06:23 49.87164 11.34021 39313 ft 462 kts 226°
2026-05-08 06:23 49.84573 11.31121 39437 ft 463 kts 227°
2026-05-08 06:23 49.81967 11.28185 39561 ft 464 kts 227°
2026-05-08 06:24 49.79411 11.25208 39682 ft 461 kts 229°
2026-05-08 06:24 49.76976 11.22083 39807 ft 457 kts 232°
2026-05-08 06:24 49.74651 11.18784 39928 ft 454 kts 234°
2026-05-08 06:24 49.72425 11.15301 40041 ft 451 kts 237°
2026-05-08 06:25 49.68070 11.08322 40079 ft 453 kts 236°
2026-05-08 06:25 49.63708 11.01359 40084 ft 453 kts 236°
2026-05-08 06:26 49.59369 10.94451 40085 ft 449 kts 236°
2026-05-08 06:26 49.55065 10.87629 40086 ft 444 kts 236°
2026-05-08 06:27 49.50786 10.80857 40087 ft 439 kts 236°
2026-05-08 06:27 49.46540 10.74155 40087 ft 437 kts 236°
2026-05-08 06:28 49.42307 10.67496 40089 ft 437 kts 236°
2026-05-08 06:28 49.38126 10.60801 40091 ft 436 kts 237°
2026-05-08 06:29 49.33963 10.54068 40092 ft 436 kts 236°
2026-05-08 06:29 49.29676 10.47488 40093 ft 438 kts 235°
2026-05-08 06:30 49.25356 10.40924 40092 ft 438 kts 235°
2026-05-08 06:30 49.21086 10.34366 40095 ft 437 kts 235°
2026-05-08 06:31 49.16913 10.27858 40093 ft 437 kts 235°
2026-05-08 06:31 49.12873 10.21036 40091 ft 431 kts 240°
2026-05-08 06:32 49.09128 10.13922 40089 ft 432 kts 240°
2026-05-08 06:32 49.05334 10.06746 40086 ft 438 kts 240°
2026-05-08 06:33 49.01499 9.99512 40084 ft 444 kts 240°
2026-05-08 06:33 48.97609 9.92198 40083 ft 449 kts 240°
2026-05-08 06:34 48.93631 9.84744 40085 ft 453 kts 239°
2026-05-08 06:34 48.89648 9.77310 40084 ft 454 kts 239°
2026-05-08 06:35 48.85657 9.69909 40085 ft 454 kts 239°
2026-05-08 06:35 48.81679 9.62523 40085 ft 454 kts 239°
2026-05-08 06:36 48.77690 9.55125 40085 ft 454 kts 239°
2026-05-08 06:36 48.73682 9.47710 40078 ft 454 kts 239°
2026-05-08 06:37 48.69706 9.40366 40070 ft 454 kts 239°
2026-05-08 06:37 48.65691 9.32973 40064 ft 455 kts 239°
2026-05-08 06:38 48.61725 9.25534 40059 ft 453 kts 241°
2026-05-08 06:38 48.58062 9.17814 40058 ft 451 kts 243°
2026-05-08 06:39 48.54435 9.10128 40058 ft 451 kts 243°
2026-05-08 06:39 48.50797 9.02436 40058 ft 449 kts 242°
2026-05-08 06:40 48.47183 8.94820 40058 ft 446 kts 242°
2026-05-08 06:40 48.43594 8.87278 40058 ft 443 kts 241°
2026-05-08 06:41 48.40025 8.79807 40058 ft 442 kts 241°
2026-05-08 06:41 48.36451 8.72344 40057 ft 442 kts 241°
2026-05-08 06:42 48.32865 8.64877 40058 ft 442 kts 241°
2026-05-08 06:42 48.29273 8.57418 40057 ft 442 kts 241°
2026-05-08 06:43 48.25674 8.49968 40058 ft 442 kts 241°
2026-05-08 06:43 48.22006 8.42576 40057 ft 444 kts 239°
2026-05-08 06:44 48.17867 8.35605 40058 ft 450 kts 233°
2026-05-08 06:44 48.13221 8.29218 40059 ft 457 kts 227°
2026-05-08 06:45 48.08107 8.23519 40058 ft 464 kts 221°
2026-05-08 06:45 48.02688 8.18289 40058 ft 465 kts 221°
2026-05-08 06:46 47.97246 8.13060 40057 ft 465 kts 221°
2026-05-08 06:46 47.91854 8.07889 40057 ft 465 kts 221°
2026-05-08 06:47 47.86392 8.02682 40057 ft 465 kts 220°
2026-05-08 06:47 47.80942 7.97513 40057 ft 465 kts 220°
2026-05-08 06:48 47.75513 7.92359 40057 ft 465 kts 221°
2026-05-08 06:48 47.70098 7.87222 40057 ft 465 kts 221°
2026-05-08 06:49 47.64671 7.82083 40057 ft 465 kts 221°
2026-05-08 06:49 47.59210 7.76925 40057 ft 465 kts 221°
2026-05-08 06:50 47.53772 7.71802 40057 ft 465 kts 221°
2026-05-08 06:50 47.48316 7.66674 40057 ft 465 kts 221°
2026-05-08 06:51 47.42894 7.61590 40057 ft 465 kts 221°
2026-05-08 06:51 47.37439 7.56491 40057 ft 465 kts 221°
2026-05-08 06:52 47.31982 7.51403 40057 ft 465 kts 221°
2026-05-08 06:52 47.26531 7.46333 40058 ft 465 kts 221°
2026-05-08 06:53 47.21226 7.40975 40057 ft 459 kts 226°
2026-05-08 06:53 47.16386 7.35021 40058 ft 453 kts 231°
2026-05-08 06:54 47.12007 7.28468 40057 ft 448 kts 236°
2026-05-08 06:54 47.08080 7.21459 40057 ft 444 kts 238°
2026-05-08 06:55 47.04243 7.14384 40057 ft 444 kts 238°
2026-05-08 06:55 47.00415 7.07358 40052 ft 445 kts 237°
2026-05-08 06:56 46.96534 7.00276 40047 ft 448 kts 236°
2026-05-08 06:56 46.92636 6.93189 40046 ft 451 kts 236°
2026-05-08 06:57 46.88702 6.86041 40047 ft 454 kts 236°
2026-05-08 06:57 46.84716 6.78864 40052 ft 456 kts 235°
2026-05-08 06:58 46.80701 6.71649 40054 ft 457 kts 235°
2026-05-08 06:58 46.76726 6.64507 40055 ft 457 kts 235°
2026-05-08 06:59 46.72713 6.57310 40055 ft 457 kts 236°
2026-05-08 06:59 46.68720 6.50162 40055 ft 457 kts 236°
2026-05-08 07:00 46.64711 6.43004 40052 ft 457 kts 236°
2026-05-08 07:00 46.60728 6.35912 40045 ft 457 kts 236°
2026-05-08 07:01 46.56701 6.28738 40038 ft 457 kts 235°
2026-05-08 07:01 46.52702 6.21633 40033 ft 457 kts 235°
2026-05-08 07:02 46.48673 6.14506 40031 ft 457 kts 235°
2026-05-08 07:02 46.44644 6.07404 40031 ft 457 kts 235°
2026-05-08 07:03 46.40635 6.00356 40031 ft 457 kts 234°
2026-05-08 07:03 46.36597 5.93276 40031 ft 457 kts 234°
2026-05-08 07:04 46.32542 5.86187 40031 ft 457 kts 234°
2026-05-08 07:04 46.28503 5.79143 40031 ft 457 kts 234°
2026-05-08 07:05 46.24462 5.72117 40031 ft 457 kts 234°
2026-05-08 07:05 46.20389 5.65058 40031 ft 457 kts 234°
2026-05-08 07:06 46.16338 5.58039 40030 ft 457 kts 235°
2026-05-08 07:06 46.12580 5.50741 40031 ft 454 kts 240°
2026-05-08 07:07 46.09006 5.43273 40031 ft 454 kts 240°
2026-05-08 07:07 46.05431 5.35835 40032 ft 454 kts 240°
2026-05-08 07:08 46.01858 5.28404 40031 ft 454 kts 239°
2026-05-08 07:08 45.98255 5.20930 40031 ft 454 kts 239°
2026-05-08 07:09 45.94657 5.13499 40031 ft 454 kts 239°
2026-05-08 07:09 45.91063 5.06100 40031 ft 454 kts 239°
2026-05-08 07:10 45.87421 4.98666 40032 ft 452 kts 239°
2026-05-08 07:10 45.83821 4.91364 40033 ft 446 kts 240°
2026-05-08 07:11 45.80287 4.84171 40033 ft 439 kts 241°
2026-05-08 07:11 45.76820 4.77108 40032 ft 433 kts 242°
2026-05-08 07:12 45.73354 4.70051 40031 ft 432 kts 242°
2026-05-08 07:12 45.69913 4.63069 40031 ft 432 kts 242°
2026-05-08 07:13 45.66450 4.56057 40031 ft 432 kts 242°
2026-05-08 07:13 45.62995 4.49081 40031 ft 432 kts 242°
2026-05-08 07:14 45.59518 4.42080 40031 ft 432 kts 242°
2026-05-08 07:14 45.56059 4.35135 40031 ft 432 kts 242°
2026-05-08 07:15 45.52593 4.28178 40031 ft 432 kts 241°
2026-05-08 07:15 45.49105 4.21190 40031 ft 432 kts 241°
2026-05-08 07:16 45.45628 4.14254 40031 ft 432 kts 241°
2026-05-08 07:16 45.42126 4.07294 40031 ft 432 kts 241°
2026-05-08 07:17 45.38641 4.00389 40031 ft 432 kts 241°
2026-05-08 07:17 45.35133 3.93458 40031 ft 432 kts 241°
2026-05-08 07:18 45.31634 3.86564 40031 ft 432 kts 241°
2026-05-08 07:18 45.28105 3.79631 40030 ft 432 kts 241°
2026-05-08 07:19 45.24601 3.72713 40027 ft 432 kts 242°
2026-05-08 07:19 45.21203 3.65780 40020 ft 431 kts 242°
2026-05-08 07:20 45.17781 3.58812 40013 ft 431 kts 242°
2026-05-08 07:20 45.14348 3.51854 40007 ft 432 kts 242°
2026-05-08 07:21 45.10897 3.44888 40003 ft 432 kts 242°
2026-05-08 07:21 45.07461 3.37967 40003 ft 434 kts 242°
2026-05-08 07:22 45.03990 3.30986 40003 ft 437 kts 241°
2026-05-08 07:22 45.00492 3.23959 39999 ft 440 kts 240°
2026-05-08 07:23 44.96949 3.16876 39994 ft 443 kts 240°
2026-05-08 07:23 44.93401 3.09811 39986 ft 444 kts 240°
2026-05-08 07:24 44.89833 3.02732 39980 ft 442 kts 240°
2026-05-08 07:24 44.86264 2.95712 39978 ft 438 kts 239°
2026-05-08 07:25 44.82893 2.88641 39978 ft 434 kts 242°
2026-05-08 07:26 44.78005 2.78040 39976 ft 432 kts 241°
2026-05-08 07:26 44.74746 2.70992 39976 ft 431 kts 242°
2026-05-08 07:27 44.71480 2.63942 39976 ft 431 kts 242°
2026-05-08 07:27 44.68218 2.56915 39976 ft 431 kts 242°
2026-05-08 07:28 44.64930 2.49852 39976 ft 432 kts 242°
2026-05-08 07:28 44.61659 2.42842 39976 ft 431 kts 242°
2026-05-08 07:29 44.58361 2.35791 39976 ft 432 kts 242°
2026-05-08 07:29 44.55076 2.28764 39976 ft 432 kts 241°
2026-05-08 07:30 44.51784 2.21740 39976 ft 432 kts 241°
2026-05-08 07:30 44.48492 2.14746 39976 ft 432 kts 241°
2026-05-08 07:31 44.45200 2.07778 39976 ft 432 kts 241°
2026-05-08 07:31 44.41875 2.00755 39976 ft 432 kts 241°
2026-05-08 07:32 44.38573 1.93800 39976 ft 432 kts 241°
2026-05-08 07:32 44.35265 1.86853 39975 ft 432 kts 241°
2026-05-08 07:33 44.31934 1.79877 39971 ft 432 kts 241°
2026-05-08 07:33 44.28630 1.72928 39965 ft 432 kts 242°
2026-05-08 07:34 44.25396 1.65861 39958 ft 431 kts 242°
2026-05-08 07:34 44.22188 1.58854 39951 ft 431 kts 242°
2026-05-08 07:35 44.18951 1.51816 39949 ft 431 kts 242°
2026-05-08 07:35 44.15732 1.44848 39948 ft 431 kts 242°
2026-05-08 07:36 44.12478 1.37821 39949 ft 431 kts 242°
2026-05-08 07:36 44.09227 1.30814 39949 ft 432 kts 241°
2026-05-08 07:37 44.05994 1.23846 39948 ft 432 kts 241°
2026-05-08 07:37 44.02732 1.16850 39948 ft 431 kts 241°
2026-05-08 07:38 43.99479 1.09894 39949 ft 429 kts 241°
2026-05-08 07:38 43.96249 1.03008 39949 ft 427 kts 240°
2026-05-08 07:39 43.93017 0.96141 39949 ft 424 kts 240°
2026-05-08 07:39 43.89778 0.89277 39949 ft 428 kts 240°
2026-05-08 07:40 43.86680 0.82261 39948 ft 428 kts 242°
2026-05-08 07:40 43.83612 0.75157 39947 ft 428 kts 242°
2026-05-08 07:41 43.80561 0.68100 39948 ft 429 kts 243°
2026-05-08 07:41 43.77513 0.61055 39947 ft 429 kts 242°
2026-05-08 07:42 43.74448 0.53982 39946 ft 429 kts 243°
2026-05-08 07:42 43.71389 0.46933 39947 ft 429 kts 243°
2026-05-08 07:43 43.68328 0.39905 39946 ft 429 kts 243°
2026-05-08 07:43 43.65261 0.32868 39942 ft 429 kts 242°
2026-05-08 07:44 43.62190 0.25823 39932 ft 429 kts 242°
2026-05-08 07:44 43.59121 0.18804 39926 ft 429 kts 242°
2026-05-08 07:45 43.56028 0.11761 39922 ft 429 kts 242°
2026-05-08 07:45 43.52930 0.04725 39921 ft 429 kts 242°
2026-05-08 07:46 43.49831 -0.02290 39921 ft 429 kts 242°
2026-05-08 07:46 43.46733 -0.09290 39921 ft 429 kts 242°
2026-05-08 07:47 43.43637 -0.16268 39920 ft 429 kts 242°
2026-05-08 07:47 43.40533 -0.23248 39920 ft 429 kts 242°
2026-05-08 07:48 43.37431 -0.30203 39921 ft 429 kts 242°
2026-05-08 07:48 43.34305 -0.37194 39922 ft 429 kts 242°
2026-05-08 07:49 43.31201 -0.44123 39923 ft 429 kts 242°
2026-05-08 07:49 43.28060 -0.51119 39920 ft 429 kts 242°
2026-05-08 07:50 43.24944 -0.58041 39921 ft 429 kts 242°
2026-05-08 07:50 43.21816 -0.64972 39920 ft 429 kts 242°
2026-05-08 07:51 43.18683 -0.71916 39922 ft 429 kts 241°
2026-05-08 07:51 43.15535 -0.78873 39919 ft 429 kts 241°
2026-05-08 07:52 43.12412 -0.85750 39920 ft 429 kts 241°
2026-05-08 07:52 43.09266 -0.92651 39920 ft 429 kts 241°
2026-05-08 07:53 43.06111 -0.99550 39921 ft 429 kts 241°
2026-05-08 07:53 43.02942 -1.06461 39923 ft 428 kts 241°
2026-05-08 07:54 42.99793 -1.13341 39926 ft 426 kts 240°
2026-05-08 07:54 42.96675 -1.20145 39936 ft 426 kts 240°
2026-05-08 07:55 42.93515 -1.27014 39941 ft 430 kts 239°
2026-05-08 07:55 42.90308 -1.33947 39943 ft 436 kts 239°
2026-05-08 07:56 42.87033 -1.40960 39945 ft 441 kts 238°
2026-05-08 07:56 42.83743 -1.47991 39946 ft 443 kts 238°
2026-05-08 07:57 42.80447 -1.55056 39946 ft 443 kts 238°
2026-05-08 07:57 42.77181 -1.62136 39946 ft 442 kts 240°
2026-05-08 07:58 42.74293 -1.69493 39947 ft 442 kts 244°
2026-05-08 07:58 42.71911 -1.77211 39947 ft 442 kts 249°
2026-05-08 07:59 42.70023 -1.85122 39947 ft 443 kts 252°
2026-05-08 07:59 42.68225 -1.93075 39946 ft 443 kts 252°
2026-05-08 08:00 42.66412 -2.01083 39946 ft 443 kts 252°
2026-05-08 08:00 42.64603 -2.09037 39946 ft 443 kts 252°
2026-05-08 08:01 42.62775 -2.17025 39946 ft 442 kts 252°
2026-05-08 08:01 42.60872 -2.24930 39946 ft 442 kts 251°
2026-05-08 08:02 42.58947 -2.32831 39946 ft 442 kts 251°
2026-05-08 08:02 42.57014 -2.40751 39946 ft 442 kts 251°
2026-05-08 08:03 42.55084 -2.48642 39946 ft 442 kts 251°
2026-05-08 08:03 42.53149 -2.56527 39946 ft 443 kts 251°
2026-05-08 08:04 42.51204 -2.64422 39946 ft 443 kts 251°
2026-05-08 08:04 42.49253 -2.72337 39946 ft 443 kts 251°
2026-05-08 08:05 42.47304 -2.80206 39946 ft 442 kts 251°
2026-05-08 08:05 42.45264 -2.88013 39946 ft 441 kts 248°
2026-05-08 08:06 42.42791 -2.95611 39946 ft 441 kts 245°
2026-05-08 08:06 42.40250 -3.03091 39942 ft 441 kts 245°
2026-05-08 08:07 42.37680 -3.10626 39934 ft 441 kts 245°
2026-05-08 08:07 42.35118 -3.18119 39927 ft 441 kts 245°
2026-05-08 08:08 42.32555 -3.25592 39923 ft 440 kts 245°
2026-05-08 08:08 42.29964 -3.33125 39922 ft 440 kts 245°
2026-05-08 08:09 42.27395 -3.40574 39922 ft 441 kts 245°
2026-05-08 08:09 42.24800 -3.48075 39922 ft 441 kts 245°
2026-05-08 08:10 42.22224 -3.55504 39922 ft 441 kts 245°
2026-05-08 08:10 42.19622 -3.62985 39922 ft 441 kts 245°
2026-05-08 08:11 42.17023 -3.70452 39922 ft 441 kts 245°
2026-05-08 08:11 42.14427 -3.77897 39921 ft 441 kts 245°
2026-05-08 08:12 42.11817 -3.85346 39921 ft 441 kts 245°
2026-05-08 08:12 42.09208 -3.92761 39921 ft 441 kts 245°
2026-05-08 08:13 42.06585 -4.00190 39921 ft 441 kts 245°
2026-05-08 08:13 42.03944 -4.07650 39922 ft 441 kts 245°
2026-05-08 08:14 42.01282 -4.15006 39920 ft 441 kts 244°
2026-05-08 08:14 41.98501 -4.22336 39915 ft 441 kts 243°
2026-05-08 08:15 41.95707 -4.29663 39908 ft 441 kts 243°
2026-05-08 08:15 41.92923 -4.36953 39900 ft 441 kts 243°
2026-05-08 08:16 41.90127 -4.44259 39896 ft 441 kts 243°
2026-05-08 08:16 41.87313 -4.51534 39894 ft 441 kts 243°
2026-05-08 08:17 41.84503 -4.58783 39893 ft 441 kts 243°
2026-05-08 08:17 41.81681 -4.66080 39894 ft 441 kts 243°
2026-05-08 08:18 41.78881 -4.73344 39894 ft 441 kts 243°
2026-05-08 08:18 41.76059 -4.80647 39893 ft 441 kts 243°
2026-05-08 08:19 41.73243 -4.87907 39894 ft 440 kts 243°
2026-05-08 08:19 41.70441 -4.95108 39894 ft 439 kts 243°
2026-05-08 08:20 41.67616 -5.02351 39894 ft 438 kts 242°
2026-05-08 08:20 41.64812 -5.09516 39893 ft 437 kts 242°
2026-05-08 08:21 41.62000 -5.16683 39893 ft 437 kts 242°
2026-05-08 08:21 41.59176 -5.23862 39893 ft 437 kts 242°
2026-05-08 08:22 41.56352 -5.31027 39893 ft 437 kts 242°
2026-05-08 08:22 41.53514 -5.38210 39893 ft 437 kts 242°
2026-05-08 08:23 41.50699 -5.45318 39893 ft 437 kts 242°
2026-05-08 08:23 41.47855 -5.52480 39893 ft 437 kts 242°
2026-05-08 08:24 41.45023 -5.59591 39893 ft 437 kts 242°
2026-05-08 08:24 41.42166 -5.66756 39895 ft 437 kts 242°
2026-05-08 08:25 41.39321 -5.73893 39893 ft 437 kts 242°
2026-05-08 08:25 41.36476 -5.81006 39893 ft 437 kts 242°
2026-05-08 08:26 41.33616 -5.88125 39893 ft 437 kts 242°
2026-05-08 08:26 41.30764 -5.95202 39893 ft 437 kts 242°
2026-05-08 08:27 41.27888 -6.02319 39893 ft 437 kts 242°
2026-05-08 08:27 41.25003 -6.09433 39893 ft 437 kts 242°
2026-05-08 08:28 41.22136 -6.16486 39894 ft 437 kts 242°
2026-05-08 08:28 41.19243 -6.23577 39892 ft 437 kts 241°
2026-05-08 08:29 41.16048 -6.30434 39893 ft 437 kts 236°
2026-05-08 08:29 41.12471 -6.36918 39893 ft 438 kts 234°
2026-05-08 08:30 41.08855 -6.43359 39892 ft 439 kts 233°
2026-05-08 08:30 41.03315 -6.53185 39891 ft 448 kts 232°
2026-05-08 08:31 40.99563 -6.59804 39891 ft 455 kts 232°
2026-05-08 08:31 40.95757 -6.66503 39891 ft 462 kts 231°
2026-05-08 08:32 40.91867 -6.73362 39892 ft 465 kts 231°
2026-05-08 08:32 40.87973 -6.80190 39894 ft 466 kts 231°
2026-05-08 08:33 40.84075 -6.86970 39893 ft 466 kts 231°
2026-05-08 08:33 40.80173 -6.93762 39893 ft 466 kts 231°
2026-05-08 08:34 40.76259 -7.00570 39893 ft 465 kts 231°
2026-05-08 08:34 40.72358 -7.07344 39889 ft 465 kts 231°
2026-05-08 08:35 40.70414 -7.10717 39667 ft 465 kts 232°
2026-05-08 08:35 40.68455 -7.14113 39415 ft 463 kts 232°
2026-05-08 08:35 40.66531 -7.17445 39165 ft 460 kts 232°
2026-05-08 08:35 40.64600 -7.20785 38916 ft 457 kts 232°
2026-05-08 08:36 40.62691 -7.24088 38665 ft 455 kts 232°
2026-05-08 08:36 40.60783 -7.27383 38416 ft 454 kts 232°
2026-05-08 08:36 40.58861 -7.30700 38166 ft 454 kts 232°
2026-05-08 08:36 40.56959 -7.33977 37916 ft 454 kts 232°
2026-05-08 08:37 40.55052 -7.37259 37665 ft 454 kts 232°
2026-05-08 08:37 40.53142 -7.40544 37417 ft 454 kts 232°
2026-05-08 08:37 40.51229 -7.43830 37167 ft 453 kts 232°
2026-05-08 08:37 40.49321 -7.47101 36917 ft 453 kts 232°
2026-05-08 08:38 40.47408 -7.50380 36668 ft 453 kts 232°
2026-05-08 08:38 40.45507 -7.53632 36419 ft 453 kts 232°
2026-05-08 08:38 40.43593 -7.56906 36114 ft 454 kts 232°
2026-05-08 08:38 40.41663 -7.60203 35675 ft 454 kts 232°
2026-05-08 08:39 40.39756 -7.63456 35125 ft 455 kts 232°
2026-05-08 08:39 40.37812 -7.66775 34491 ft 456 kts 232°
2026-05-08 08:39 40.35891 -7.70059 33815 ft 456 kts 232°
2026-05-08 08:39 40.33973 -7.73336 33110 ft 457 kts 232°
2026-05-08 08:40 40.32059 -7.76598 32387 ft 458 kts 232°
2026-05-08 08:40 40.30119 -7.79895 31637 ft 459 kts 232°
2026-05-08 08:40 40.28154 -7.83228 30859 ft 460 kts 232°
2026-05-08 08:40 40.26208 -7.86526 30069 ft 461 kts 232°
2026-05-08 08:41 40.24269 -7.89808 29330 ft 461 kts 232°
2026-05-08 08:41 40.22310 -7.93119 28871 ft 454 kts 232°
2026-05-08 08:41 40.20403 -7.96338 28336 ft 450 kts 232°
2026-05-08 08:41 40.18502 -7.99544 27793 ft 446 kts 232°
2026-05-08 08:42 40.16624 -8.02707 27287 ft 441 kts 232°
2026-05-08 08:42 40.14743 -8.05870 26793 ft 436 kts 232°
2026-05-08 08:42 40.12913 -8.08945 26314 ft 432 kts 232°
2026-05-08 08:42 40.11068 -8.12041 25831 ft 427 kts 232°
2026-05-08 08:43 40.09255 -8.15081 25540 ft 421 kts 232°
2026-05-08 08:43 40.07461 -8.18084 25361 ft 417 kts 232°
2026-05-08 08:43 40.05689 -8.21048 25179 ft 415 kts 232°
2026-05-08 08:43 40.03929 -8.23990 24932 ft 405 kts 232°
2026-05-08 08:44 40.02205 -8.26806 24851 ft 390 kts 227°
2026-05-08 08:44 40.00172 -8.29035 24877 ft 389 kts 212°
2026-05-08 08:44 39.97687 -8.30475 24888 ft 390 kts 196°
2026-05-08 08:44 39.95006 -8.31086 24900 ft 391 kts 188°
2026-05-08 08:45 39.92336 -8.31485 24899 ft 392 kts 187°
2026-05-08 08:45 39.89605 -8.31870 24899 ft 391 kts 187°
2026-05-08 08:45 39.86909 -8.32257 24899 ft 392 kts 188°
2026-05-08 08:45 39.84241 -8.32649 24899 ft 391 kts 188°
2026-05-08 08:46 39.81541 -8.33055 24899 ft 391 kts 188°
2026-05-08 08:46 39.78826 -8.33467 24899 ft 391 kts 188°
2026-05-08 08:46 39.76125 -8.33880 24899 ft 391 kts 188°
2026-05-08 08:46 39.73445 -8.34289 24870 ft 383 kts 188°
2026-05-08 08:47 39.70876 -8.34754 24875 ft 366 kts 195°
2026-05-08 08:47 39.68600 -8.36008 24885 ft 350 kts 214°
2026-05-08 08:47 39.66836 -8.38079 24888 ft 348 kts 230°
2026-05-08 08:47 39.65338 -8.40560 24712 ft 350 kts 233°
2026-05-08 08:48 39.63890 -8.43060 24327 ft 348 kts 233°
2026-05-08 08:48 39.62432 -8.45570 23969 ft 345 kts 233°
2026-05-08 08:48 39.60999 -8.48015 23632 ft 342 kts 232°
2026-05-08 08:48 39.59533 -8.50433 23295 ft 339 kts 229°
2026-05-08 08:49 39.57867 -8.52574 22959 ft 336 kts 220°
2026-05-08 08:49 39.56002 -8.54351 22629 ft 334 kts 213°
2026-05-08 08:49 39.54036 -8.55928 22302 ft 331 kts 212°
2026-05-08 08:49 39.52086 -8.57447 21981 ft 328 kts 212°
2026-05-08 08:50 39.50132 -8.58965 21658 ft 326 kts 212°
2026-05-08 08:50 39.48211 -8.60463 21341 ft 323 kts 212°
2026-05-08 08:50 39.46294 -8.61961 21026 ft 321 kts 212°
2026-05-08 08:50 39.44395 -8.63446 20713 ft 319 kts 212°
2026-05-08 08:51 39.42507 -8.64924 20400 ft 316 kts 212°
2026-05-08 08:51 39.40635 -8.66396 20091 ft 314 kts 211°
2026-05-08 08:51 39.38783 -8.67856 19785 ft 312 kts 211°
2026-05-08 08:51 39.36955 -8.69292 19484 ft 310 kts 211°
2026-05-08 08:52 39.35095 -8.70749 19177 ft 309 kts 211°
2026-05-08 08:52 39.33322 -8.72261 18847 ft 307 kts 222°
2026-05-08 08:52 39.32025 -8.74429 18520 ft 305 kts 244°
2026-05-08 08:52 39.31474 -8.77045 18199 ft 305 kts 265°
2026-05-08 08:53 39.31438 -8.79764 17909 ft 304 kts 269°
2026-05-08 08:53 39.31467 -8.82472 17612 ft 302 kts 269°
2026-05-08 08:53 39.31498 -8.85197 17316 ft 300 kts 269°
2026-05-08 08:53 39.31522 -8.87890 17024 ft 299 kts 269°
2026-05-08 08:54 39.31539 -8.90554 16736 ft 297 kts 269°
2026-05-08 08:54 39.31551 -8.93203 16449 ft 295 kts 269°
2026-05-08 08:54 39.31561 -8.95831 16165 ft 294 kts 269°
2026-05-08 08:54 39.31569 -8.98461 15878 ft 292 kts 269°
2026-05-08 08:55 39.31576 -9.01077 15592 ft 291 kts 269°
2026-05-08 08:55 39.31583 -9.03699 15307 ft 290 kts 269°
2026-05-08 08:55 39.31589 -9.06290 15024 ft 288 kts 269°
2026-05-08 08:55 39.31596 -9.08853 14744 ft 287 kts 269°
2026-05-08 08:56 39.31603 -9.11429 14462 ft 286 kts 269°
2026-05-08 08:56 39.31610 -9.13995 14180 ft 284 kts 269°
2026-05-08 08:56 39.31616 -9.16522 13903 ft 283 kts 269°
2026-05-08 08:56 39.31620 -9.19037 13629 ft 281 kts 269°
2026-05-08 08:57 39.31623 -9.21579 13352 ft 280 kts 269°
2026-05-08 08:57 39.31625 -9.24085 13079 ft 279 kts 269°
2026-05-08 08:57 39.31626 -9.26581 12807 ft 277 kts 269°
2026-05-08 08:57 39.31626 -9.29059 12537 ft 276 kts 269°
2026-05-08 08:58 39.31626 -9.31506 12270 ft 274 kts 269°
2026-05-08 08:58 39.31626 -9.33980 12000 ft 273 kts 269°
2026-05-08 08:58 39.31625 -9.36392 11893 ft 264 kts 269°
2026-05-08 08:58 39.31625 -9.38698 11862 ft 254 kts 269°
2026-05-08 08:59 39.31429 -9.40922 11653 ft 252 kts 249°
2026-05-08 08:59 39.30489 -9.42818 11401 ft 250 kts 223°
2026-05-08 08:59 39.29012 -9.43924 11151 ft 249 kts 197°
2026-05-08 08:59 39.27292 -9.44150 10924 ft 249 kts 182°
2026-05-08 09:00 39.25590 -9.44120 10700 ft 247 kts 180°
2026-05-08 09:00 39.23863 -9.44072 10472 ft 246 kts 181°
2026-05-08 09:00 39.22174 -9.44039 10247 ft 244 kts 181°
2026-05-08 09:00 39.20483 -9.44017 10022 ft 243 kts 181°
2026-05-08 09:01 39.18790 -9.44002 9798 ft 242 kts 181°
2026-05-08 09:01 39.17115 -9.43940 9559 ft 242 kts 172°
2026-05-08 09:01 39.15577 -9.43120 9312 ft 245 kts 143°
2026-05-08 09:01 39.14511 -9.41433 9067 ft 248 kts 115°
2026-05-08 09:02 39.14166 -9.39252 8836 ft 248 kts 93°
2026-05-08 09:02 39.14164 -9.37032 8617 ft 248 kts 90°
2026-05-08 09:02 39.14198 -9.34824 8398 ft 247 kts 90°
2026-05-08 09:02 39.14223 -9.32628 8181 ft 246 kts 91°
2026-05-08 09:03 39.14235 -9.30424 8013 ft 242 kts 91°
2026-05-08 09:03 39.14240 -9.28297 7991 ft 236 kts 91°
2026-05-08 09:03 39.14469 -9.26206 7984 ft 235 kts 71°
2026-05-08 09:03 39.15208 -9.24330 7990 ft 234 kts 58°
2026-05-08 09:04 39.16101 -9.22601 7988 ft 234 kts 56°
2026-05-08 09:04 39.17039 -9.20852 7987 ft 234 kts 56°
2026-05-08 09:04 39.17956 -9.19126 7987 ft 233 kts 56°
2026-05-08 09:04 39.18863 -9.17397 7987 ft 233 kts 57°
2026-05-08 09:05 39.19613 -9.15550 7986 ft 232 kts 70°
2026-05-08 09:05 39.20043 -9.13561 7989 ft 232 kts 79°
2026-05-08 09:05 39.20351 -9.11530 7988 ft 231 kts 81°
2026-05-08 09:05 39.20642 -9.09477 7987 ft 231 kts 81°
2026-05-08 09:06 39.20935 -9.07432 7987 ft 231 kts 81°
2026-05-08 09:06 39.21234 -9.05407 7987 ft 231 kts 81°
2026-05-08 09:06 39.21375 -9.03350 7987 ft 230 kts 94°
2026-05-08 09:06 39.21182 -9.01310 7990 ft 229 kts 102°
2026-05-08 09:07 39.20864 -8.99305 7988 ft 228 kts 104°
2026-05-08 09:07 39.20525 -8.97288 7988 ft 228 kts 104°
2026-05-08 09:07 39.20194 -8.95299 7987 ft 228 kts 104°
2026-05-08 09:07 39.19865 -8.93285 7987 ft 228 kts 103°
2026-05-08 09:08 39.19420 -8.91346 7987 ft 227 kts 115°
2026-05-08 09:08 39.18668 -8.89568 7990 ft 225 kts 125°
2026-05-08 09:08 39.17788 -8.87884 7988 ft 225 kts 127°
2026-05-08 09:08 39.16899 -8.86236 7987 ft 225 kts 127°
2026-05-08 09:09 39.16015 -8.84591 7987 ft 225 kts 127°
2026-05-08 09:09 39.15130 -8.82933 7987 ft 225 kts 126°
2026-05-08 09:09 39.14186 -8.81330 7986 ft 223 kts 135°
2026-05-08 09:09 39.13023 -8.80025 7988 ft 222 kts 146°
2026-05-08 09:10 39.11733 -8.78906 7989 ft 221 kts 149°
2026-05-08 09:10 39.10455 -8.77847 7988 ft 221 kts 149°
2026-05-08 09:10 39.09099 -8.76900 7973 ft 219 kts 166°
2026-05-08 09:10 39.07595 -8.76833 7980 ft 217 kts 195°
2026-05-08 09:11 39.06271 -8.77712 7904 ft 219 kts 223°
2026-05-08 09:11 39.05430 -8.79349 7558 ft 225 kts 252°
2026-05-08 09:11 39.05161 -8.81319 7314 ft 226 kts 261°
2026-05-08 09:11 39.04979 -8.83342 7074 ft 226 kts 262°
2026-05-08 09:12 39.04802 -8.85329 6853 ft 225 kts 262°
2026-05-08 09:12 39.04620 -8.87310 6675 ft 220 kts 261°
2026-05-08 09:12 39.04333 -8.89222 6480 ft 215 kts 245°
2026-05-08 09:12 39.03595 -8.90842 6283 ft 210 kts 233°
2026-05-08 09:13 39.02728 -8.92346 6069 ft 205 kts 232°
2026-05-08 09:13 39.01898 -8.93791 5770 ft 202 kts 233°
2026-05-08 09:13 39.01086 -8.95263 5474 ft 198 kts 233°
2026-05-08 09:13 39.00319 -8.96694 5191 ft 195 kts 234°
2026-05-08 09:14 38.99561 -8.98133 4910 ft 192 kts 234°
2026-05-08 09:14 38.98818 -8.99554 4633 ft 188 kts 234°
2026-05-08 09:14 38.98095 -9.00944 4330 ft 188 kts 234°
2026-05-08 09:14 38.97380 -9.02321 4038 ft 186 kts 234°
2026-05-08 09:15 38.96597 -9.03595 3867 ft 178 kts 218°
2026-05-08 09:15 38.95550 -9.04351 3684 ft 168 kts 202°
2026-05-08 09:15 38.94490 -9.04910 3489 ft 160 kts 200°
2026-05-08 09:15 38.93485 -9.05420 3299 ft 153 kts 200°
2026-05-08 09:16 38.92510 -9.05920 3083 ft 148 kts 200°
2026-05-08 09:16 38.91571 -9.06411 2894 ft 144 kts 201°
2026-05-08 09:16 38.90649 -9.06898 2726 ft 144 kts 201°
2026-05-08 09:16 38.89725 -9.07390 2545 ft 144 kts 201°
2026-05-08 09:17 38.88796 -9.07882 2364 ft 144 kts 201°
2026-05-08 09:17 38.87873 -9.08373 2182 ft 143 kts 201°
2026-05-08 09:17 38.86964 -9.08859 1999 ft 143 kts 201°
2026-05-08 09:17 38.86048 -9.09351 1811 ft 142 kts 201°
2026-05-08 09:18 38.85130 -9.09844 1618 ft 142 kts 201°
2026-05-08 09:18 38.84222 -9.10331 1426 ft 142 kts 201°
2026-05-08 09:18 38.83313 -9.10819 1233 ft 141 kts 201°
2026-05-08 09:18 38.82411 -9.11302 1051 ft 142 kts 201°
2026-05-08 09:19 38.81497 -9.11793 846 ft 142 kts 202°
2026-05-08 09:19 38.80593 -9.12282 648 ft 141 kts 201°
2026-05-08 09:19 38.79691 -9.12760 446 ft 136 kts 200°
2026-05-08 09:19 38.78854 -9.13189 351 ft 122 kts 201°
2026-05-08 09:20 38.78149 -9.13575 365 ft 92 kts 203°
2026-05-08 09:20 38.77651 -9.13845 361 ft 68 kts 202°
2026-05-08 09:20 38.77321 -9.13898 353 ft 19 kts 172°
2026-05-08 09:20 38.77252 -9.13835 350 ft 13 kts 101°
2026-05-08 09:21 38.77263 -9.13702 346 ft 17 kts 78°
2026-05-08 09:21 38.77294 -9.13523 339 ft 23 kts 77°
2026-05-08 09:22 38.77371 -9.13158 332 ft 0 kts 76°